TVS4428 SBFZ-GVAC

Flight info

Callsign TVS4428
Flight time 3h 41m
Altitude 35000
Route TOGAB DCT 0131S03627W 0013N03509W 0158N03350W 0343N03231W 0527N03112W 0712N02953W 0856N02832W 1040N02711W 1223N02550W DCT BULVO AMDER1F
Aircraft B38M/M-SDE3FGHIJ1RWXY/LB1

Departure

Time 2026-05-07 08:35
Airport Pinto Martins International Airport (SBFZ)

Arrival

Time 2026-05-07 12:16
Airport Amílcar Cabral International Airport (GVAC)
Time Latitude Longitude Altitude Speed Heading
2026-05-07 08:18 -3.77810 -38.53484 121 ft 0 kts 194°
2026-05-07 08:25 -3.77799 -38.53481 86 ft 4 kts 191°
2026-05-07 08:25 -3.77772 -38.53478 88 ft 4 kts 181°
2026-05-07 08:25 -3.77745 -38.53480 87 ft 4 kts 165°
2026-05-07 08:25 -3.77724 -38.53491 90 ft 4 kts 124°
2026-05-07 08:26 -3.77719 -38.53500 88 ft 0 kts 104°
2026-05-07 08:29 -3.77720 -38.53500 88 ft 0 kts 104°
2026-05-07 08:29 -3.77725 -38.53480 87 ft 7 kts 104°
2026-05-07 08:29 -3.77744 -38.53407 89 ft 14 kts 105°
2026-05-07 08:30 -3.77774 -38.53294 86 ft 18 kts 105°
2026-05-07 08:30 -3.77810 -38.53161 83 ft 21 kts 105°
2026-05-07 08:30 -3.77849 -38.53015 84 ft 22 kts 104°
2026-05-07 08:30 -3.77882 -38.52889 81 ft 15 kts 105°
2026-05-07 08:31 -3.77909 -38.52786 80 ft 14 kts 100°
2026-05-07 08:31 -3.77897 -38.52713 83 ft 12 kts 66°
2026-05-07 08:31 -3.77857 -38.52636 72 ft 13 kts 52°
2026-05-07 08:31 -3.77773 -38.52593 73 ft 14 kts 15°
2026-05-07 08:32 -3.77688 -38.52566 76 ft 12 kts 35°
2026-05-07 08:32 -3.77678 -38.52488 78 ft 13 kts 103°
2026-05-07 08:32 -3.77703 -38.52397 74 ft 14 kts 105°
2026-05-07 08:32 -3.77730 -38.52299 70 ft 11 kts 105°
2026-05-07 08:33 -3.77753 -38.52214 73 ft 13 kts 105°
2026-05-07 08:33 -3.77800 -38.52140 68 ft 14 kts 163°
2026-05-07 08:33 -3.77887 -38.52157 70 ft 9 kts 194°
2026-05-07 08:33 -3.77913 -38.52205 65 ft 9 kts 276°
2026-05-07 08:34 -3.77910 -38.52219 67 ft 0 kts 284°
2026-05-07 08:34 -3.77875 -38.52351 74 ft 56 kts 285°
2026-05-07 08:34 -3.77707 -38.52975 84 ft 128 kts 285°
2026-05-07 08:34 -3.77424 -38.54021 229 ft 171 kts 285°
2026-05-07 08:35 -3.77083 -38.55217 850 ft 185 kts 285°
2026-05-07 08:35 -3.76368 -38.56315 1536 ft 191 kts 326°
2026-05-07 08:35 -3.75113 -38.56781 2138 ft 203 kts 359°
2026-05-07 08:35 -3.73705 -38.56459 2548 ft 216 kts 33°
2026-05-07 08:36 -3.72596 -38.55434 3102 ft 223 kts 52°
2026-05-07 08:36 -3.71589 -38.54211 3596 ft 238 kts 54°
2026-05-07 08:36 -3.70542 -38.52859 4153 ft 253 kts 56°
2026-05-07 08:36 -3.69461 -38.51441 4922 ft 261 kts 55°
2026-05-07 08:37 -3.68332 -38.49945 5509 ft 276 kts 55°
2026-05-07 08:37 -3.67195 -38.48397 6444 ft 275 kts 55°
2026-05-07 08:37 -3.66069 -38.46837 7243 ft 278 kts 56°
2026-05-07 08:37 -3.64928 -38.45253 8060 ft 281 kts 56°
2026-05-07 08:38 -3.63782 -38.43655 8878 ft 284 kts 56°
2026-05-07 08:38 -3.62628 -38.42041 9672 ft 287 kts 56°
2026-05-07 08:38 -3.61460 -38.40400 10304 ft 295 kts 56°
2026-05-07 08:38 -3.60245 -38.38696 10601 ft 314 kts 56°
2026-05-07 08:39 -3.58938 -38.36857 10854 ft 333 kts 56°
2026-05-07 08:39 -3.57570 -38.34928 11219 ft 346 kts 56°
2026-05-07 08:39 -3.56170 -38.32955 11867 ft 348 kts 56°
2026-05-07 08:39 -3.54763 -38.30977 12505 ft 351 kts 56°
2026-05-07 08:40 -3.53344 -38.28984 13130 ft 353 kts 56°
2026-05-07 08:40 -3.51901 -38.26964 13743 ft 356 kts 56°
2026-05-07 08:40 -3.50457 -38.24937 14253 ft 359 kts 56°
2026-05-07 08:40 -3.48999 -38.22885 14733 ft 363 kts 56°
2026-05-07 08:41 -3.47534 -38.20815 15210 ft 366 kts 56°
2026-05-07 08:41 -3.46059 -38.18729 15685 ft 369 kts 56°
2026-05-07 08:41 -3.44588 -38.16645 16142 ft 372 kts 56°
2026-05-07 08:41 -3.43088 -38.14519 16593 ft 375 kts 56°
2026-05-07 08:42 -3.41577 -38.12379 17043 ft 378 kts 56°
2026-05-07 08:42 -3.39975 -38.10272 17451 ft 382 kts 46°
2026-05-07 08:42 -3.37934 -38.08552 17903 ft 385 kts 41°
2026-05-07 08:42 -3.35872 -38.06798 18248 ft 389 kts 42°
2026-05-07 08:43 -3.33818 -38.05020 18607 ft 392 kts 42°
2026-05-07 08:43 -3.31760 -38.03222 18970 ft 394 kts 42°
2026-05-07 08:43 -3.29693 -38.01408 19316 ft 396 kts 41°
2026-05-07 08:43 -3.27619 -37.99583 19677 ft 398 kts 41°
2026-05-07 08:44 -3.25536 -37.97750 20027 ft 400 kts 41°
2026-05-07 08:44 -3.23436 -37.95902 20373 ft 402 kts 41°
2026-05-07 08:44 -3.21334 -37.94052 20717 ft 404 kts 41°
2026-05-07 08:44 -3.19215 -37.92186 21063 ft 406 kts 41°
2026-05-07 08:45 -3.17085 -37.90311 21396 ft 408 kts 40°
2026-05-07 08:45 -3.14975 -37.88455 21736 ft 410 kts 40°
2026-05-07 08:45 -3.12819 -37.86557 22066 ft 413 kts 40°
2026-05-07 08:45 -3.10657 -37.84655 22410 ft 414 kts 40°
2026-05-07 08:46 -3.08484 -37.82742 22748 ft 416 kts 40°
2026-05-07 08:46 -3.06301 -37.80822 23069 ft 419 kts 40°
2026-05-07 08:46 -3.04110 -37.78894 23394 ft 421 kts 40°
2026-05-07 08:46 -3.01900 -37.76950 23681 ft 423 kts 40°
2026-05-07 08:47 -2.99678 -37.74995 23949 ft 426 kts 40°
2026-05-07 08:47 -2.97472 -37.73055 24197 ft 428 kts 40°
2026-05-07 08:47 -2.95200 -37.71056 24468 ft 431 kts 40°
2026-05-07 08:47 -2.92973 -37.69097 24718 ft 433 kts 40°
2026-05-07 08:48 -2.90674 -37.67075 24963 ft 436 kts 40°
2026-05-07 08:48 -2.88421 -37.65094 25214 ft 438 kts 40°
2026-05-07 08:48 -2.86122 -37.63072 25465 ft 440 kts 40°
2026-05-07 08:48 -2.83812 -37.61041 25711 ft 443 kts 40°
2026-05-07 08:49 -2.81490 -37.58999 25960 ft 445 kts 41°
2026-05-07 08:49 -2.79157 -37.56947 26209 ft 447 kts 41°
2026-05-07 08:49 -2.76811 -37.54884 26449 ft 450 kts 41°
2026-05-07 08:49 -2.74455 -37.52813 26683 ft 452 kts 41°
2026-05-07 08:50 -2.72089 -37.50734 26927 ft 454 kts 41°
2026-05-07 08:50 -2.69708 -37.48640 27163 ft 456 kts 41°
2026-05-07 08:50 -2.67310 -37.46533 27382 ft 459 kts 41°
2026-05-07 08:50 -2.64906 -37.44419 27625 ft 461 kts 41°
2026-05-07 08:51 -2.62496 -37.42302 27877 ft 462 kts 41°
2026-05-07 08:51 -2.60072 -37.40171 28107 ft 464 kts 41°
2026-05-07 08:51 -2.57642 -37.38036 28339 ft 466 kts 41°
2026-05-07 08:51 -2.55233 -37.35919 28576 ft 468 kts 41°
2026-05-07 08:52 -2.52778 -37.33762 28788 ft 470 kts 41°
2026-05-07 08:52 -2.50320 -37.31602 29012 ft 472 kts 41°
2026-05-07 08:52 -2.47851 -37.29432 29251 ft 473 kts 41°
2026-05-07 08:52 -2.45374 -37.27256 29475 ft 474 kts 42°
2026-05-07 08:53 -2.42881 -37.25066 29685 ft 476 kts 42°
2026-05-07 08:53 -2.40387 -37.22876 29893 ft 478 kts 42°
2026-05-07 08:53 -2.37891 -37.20683 30091 ft 479 kts 42°
2026-05-07 08:53 -2.35378 -37.18476 30272 ft 481 kts 41°
2026-05-07 08:54 -2.32857 -37.16261 30462 ft 482 kts 41°
2026-05-07 08:54 -2.30365 -37.14072 30648 ft 483 kts 41°
2026-05-07 08:54 -2.27841 -37.11856 30832 ft 484 kts 41°
2026-05-07 08:54 -2.25311 -37.09634 31010 ft 485 kts 41°
2026-05-07 08:55 -2.22765 -37.07398 31191 ft 486 kts 41°
2026-05-07 08:55 -2.20221 -37.05164 31356 ft 487 kts 41°
2026-05-07 08:55 -2.17666 -37.02921 31571 ft 487 kts 41°
2026-05-07 08:55 -2.15119 -37.00684 31815 ft 487 kts 41°
2026-05-07 08:56 -2.12573 -36.98449 32069 ft 486 kts 41°
2026-05-07 08:56 -2.10030 -36.96216 32328 ft 485 kts 41°
2026-05-07 08:56 -2.07497 -36.93993 32592 ft 484 kts 41°
2026-05-07 08:56 -2.04966 -36.91771 32864 ft 483 kts 41°
2026-05-07 08:57 -2.02443 -36.89556 33145 ft 482 kts 41°
2026-05-07 08:57 -1.99930 -36.87350 33450 ft 480 kts 41°
2026-05-07 08:57 -1.97460 -36.85183 33751 ft 478 kts 41°
2026-05-07 08:57 -1.94964 -36.82991 34048 ft 476 kts 41°
2026-05-07 08:58 -1.92481 -36.80811 34330 ft 473 kts 41°
2026-05-07 08:58 -1.90012 -36.78644 34600 ft 472 kts 41°
2026-05-07 08:58 -1.87548 -36.76482 34852 ft 470 kts 41°
2026-05-07 08:58 -1.85089 -36.74324 34961 ft 470 kts 41°
2026-05-07 08:59 -1.80193 -36.70028 34950 ft 466 kts 41°
2026-05-07 08:59 -1.75313 -36.65745 34945 ft 467 kts 41°
2026-05-07 09:00 -1.70429 -36.61460 34949 ft 467 kts 41°
2026-05-07 09:00 -1.65547 -36.57176 34948 ft 467 kts 41°
2026-05-07 09:01 -1.60684 -36.52910 34943 ft 467 kts 41°
2026-05-07 09:01 -1.55792 -36.48619 34948 ft 467 kts 41°
2026-05-07 09:02 -1.50819 -36.44432 34945 ft 467 kts 36°
2026-05-07 09:02 -1.45577 -36.40580 34950 ft 468 kts 37°
2026-05-07 09:03 -1.40399 -36.36698 34950 ft 468 kts 37°
2026-05-07 09:03 -1.35196 -36.32789 34953 ft 468 kts 37°
2026-05-07 09:04 -1.29983 -36.28872 34949 ft 468 kts 37°
2026-05-07 09:04 -1.24772 -36.24957 34951 ft 469 kts 37°
2026-05-07 09:05 -1.20401 -36.21674 34949 ft 469 kts 37°
2026-05-07 09:05 -1.15223 -36.17785 34953 ft 469 kts 37°
2026-05-07 09:06 -1.10012 -36.13871 34951 ft 469 kts 37°
2026-05-07 09:06 -1.04798 -36.09954 34953 ft 468 kts 37°
2026-05-07 09:07 -0.99589 -36.06042 34949 ft 468 kts 38°
2026-05-07 09:07 -0.94385 -36.02134 34951 ft 468 kts 37°
2026-05-07 09:08 -0.89185 -35.98229 34952 ft 467 kts 37°
2026-05-07 09:08 -0.84016 -35.94347 34950 ft 467 kts 37°
2026-05-07 09:09 -0.78818 -35.90444 34955 ft 467 kts 37°
2026-05-07 09:09 -0.73629 -35.86547 34954 ft 466 kts 37°
2026-05-07 09:10 -0.68440 -35.82650 34952 ft 466 kts 38°
2026-05-07 09:10 -0.63249 -35.78752 34954 ft 466 kts 38°
2026-05-07 09:11 -0.58060 -35.74857 34955 ft 467 kts 38°
2026-05-07 09:11 -0.52890 -35.70974 34957 ft 468 kts 38°
2026-05-07 09:12 -0.47683 -35.67065 34955 ft 468 kts 38°
2026-05-07 09:12 -0.42460 -35.63143 34953 ft 469 kts 38°
2026-05-07 09:13 -0.37232 -35.59218 34952 ft 470 kts 38°
2026-05-07 09:13 -0.32025 -35.55309 34951 ft 471 kts 38°
2026-05-07 09:14 -0.26752 -35.51350 34951 ft 472 kts 38°
2026-05-07 09:14 -0.21531 -35.47430 34953 ft 472 kts 38°
2026-05-07 09:15 -0.16270 -35.43480 34952 ft 473 kts 38°
2026-05-07 09:15 -0.11000 -35.39524 34952 ft 474 kts 38°
2026-05-07 09:16 -0.05728 -35.35565 34953 ft 474 kts 38°
2026-05-07 09:16 -0.00483 -35.31627 34952 ft 474 kts 38°
2026-05-07 09:17 0.04794 -35.27666 34951 ft 474 kts 38°
2026-05-07 09:17 0.10074 -35.23702 34951 ft 474 kts 38°
2026-05-07 09:18 0.15361 -35.19733 34957 ft 475 kts 38°
2026-05-07 09:18 0.20643 -35.15767 34955 ft 475 kts 38°
2026-05-07 09:19 0.25926 -35.11794 34955 ft 475 kts 38°
2026-05-07 09:19 0.31182 -35.07842 34953 ft 475 kts 38°
2026-05-07 09:20 0.36458 -35.03874 34956 ft 475 kts 38°
2026-05-07 09:20 0.41749 -34.99896 34954 ft 475 kts 38°
2026-05-07 09:21 0.47034 -34.95922 34957 ft 475 kts 38°
2026-05-07 09:21 0.52323 -34.91944 34956 ft 475 kts 38°
2026-05-07 09:22 0.57612 -34.87967 34955 ft 475 kts 38°
2026-05-07 09:22 0.62900 -34.83990 34958 ft 476 kts 38°
2026-05-07 09:23 0.68153 -34.80039 34960 ft 476 kts 38°
2026-05-07 09:23 0.73442 -34.76061 34958 ft 476 kts 38°
2026-05-07 09:24 0.78734 -34.72081 34958 ft 476 kts 38°
2026-05-07 09:24 0.84031 -34.68097 34957 ft 476 kts 38°
2026-05-07 09:25 0.89332 -34.64110 34957 ft 476 kts 38°
2026-05-07 09:25 0.94594 -34.60152 34959 ft 476 kts 38°
2026-05-07 09:26 0.99898 -34.56162 34960 ft 476 kts 38°
2026-05-07 09:26 1.05201 -34.52173 34962 ft 477 kts 38°
2026-05-07 09:27 1.10503 -34.48184 34961 ft 477 kts 38°
2026-05-07 09:28 1.18419 -34.42230 34957 ft 477 kts 38°
2026-05-07 09:28 1.23720 -34.38241 34960 ft 477 kts 38°
2026-05-07 09:29 1.29023 -34.34251 34961 ft 477 kts 38°
2026-05-07 09:29 1.34327 -34.30260 34960 ft 477 kts 38°
2026-05-07 09:30 1.39636 -34.26265 34962 ft 477 kts 38°
2026-05-07 09:30 1.44943 -34.22272 34962 ft 477 kts 38°
2026-05-07 09:31 1.50248 -34.18278 34962 ft 477 kts 38°
2026-05-07 09:31 1.55548 -34.14289 34961 ft 477 kts 38°
2026-05-07 09:32 1.60820 -34.10322 34960 ft 477 kts 38°
2026-05-07 09:32 1.66122 -34.06331 34966 ft 477 kts 38°
2026-05-07 09:33 1.71422 -34.02341 34962 ft 477 kts 38°
2026-05-07 09:33 1.76720 -33.98352 34965 ft 477 kts 38°
2026-05-07 09:34 1.82026 -33.94358 34962 ft 477 kts 38°
2026-05-07 09:34 1.87332 -33.90363 34963 ft 477 kts 38°
2026-05-07 09:35 1.92641 -33.86365 34963 ft 477 kts 38°
2026-05-07 09:35 1.97959 -33.82366 34965 ft 477 kts 38°
2026-05-07 09:36 2.03242 -33.78398 34965 ft 478 kts 38°
2026-05-07 09:36 2.08562 -33.74401 34967 ft 478 kts 38°
2026-05-07 09:37 2.13876 -33.70409 34964 ft 478 kts 38°
2026-05-07 09:37 2.19198 -33.66410 34963 ft 478 kts 38°
2026-05-07 09:38 2.24490 -33.62434 34965 ft 478 kts 38°
2026-05-07 09:38 2.29815 -33.58433 34963 ft 478 kts 38°
2026-05-07 09:39 2.35138 -33.54432 34963 ft 478 kts 38°
2026-05-07 09:39 2.40462 -33.50430 34962 ft 478 kts 38°
2026-05-07 09:40 2.45752 -33.46454 34963 ft 478 kts 38°
2026-05-07 09:40 2.51071 -33.42455 34964 ft 478 kts 38°
2026-05-07 09:41 2.56404 -33.38446 34964 ft 479 kts 38°
2026-05-07 09:41 2.61732 -33.34440 34967 ft 479 kts 38°
2026-05-07 09:42 2.67033 -33.30454 34965 ft 479 kts 38°
2026-05-07 09:42 2.72364 -33.26444 34964 ft 479 kts 38°
2026-05-07 09:43 2.77697 -33.22433 34964 ft 480 kts 38°
2026-05-07 09:43 2.83038 -33.18415 34964 ft 480 kts 38°
2026-05-07 09:44 2.88383 -33.14393 34966 ft 480 kts 37°
2026-05-07 09:44 2.93732 -33.10368 34967 ft 480 kts 37°
2026-05-07 09:45 2.99047 -33.06369 34965 ft 481 kts 37°
2026-05-07 09:45 3.04398 -33.02342 34968 ft 481 kts 37°
2026-05-07 09:46 3.09746 -32.98316 34969 ft 481 kts 37°
2026-05-07 09:46 3.15106 -32.94281 34967 ft 481 kts 37°
2026-05-07 09:47 3.20428 -32.90274 34968 ft 481 kts 37°
2026-05-07 09:47 3.25782 -32.86242 34969 ft 482 kts 37°
2026-05-07 09:48 3.31139 -32.82208 34970 ft 481 kts 37°
2026-05-07 09:48 3.36495 -32.78174 34971 ft 482 kts 37°
2026-05-07 09:49 3.41852 -32.74138 34967 ft 481 kts 38°
2026-05-07 09:49 3.47207 -32.70104 34968 ft 481 kts 37°
2026-05-07 09:50 3.52525 -32.66096 34970 ft 482 kts 37°
2026-05-07 09:50 3.57885 -32.62056 34972 ft 482 kts 38°
2026-05-07 09:51 3.63255 -32.58009 34972 ft 482 kts 38°
2026-05-07 09:51 3.67704 -32.54655 34970 ft 482 kts 38°
2026-05-07 09:52 3.73058 -32.50608 34971 ft 482 kts 38°
2026-05-07 09:52 3.78417 -32.46550 34970 ft 482 kts 38°
2026-05-07 09:53 3.83727 -32.42526 34967 ft 482 kts 38°
2026-05-07 09:53 3.89079 -32.38471 34967 ft 482 kts 38°
2026-05-07 09:54 3.94433 -32.34414 34967 ft 483 kts 38°
2026-05-07 09:54 3.99789 -32.30354 34968 ft 483 kts 38°
2026-05-07 09:55 4.05145 -32.26294 34969 ft 483 kts 38°
2026-05-07 09:55 4.10507 -32.22228 34969 ft 483 kts 38°
2026-05-07 09:56 4.15835 -32.18188 34968 ft 483 kts 38°
2026-05-07 09:56 4.21202 -32.14117 34968 ft 483 kts 38°
2026-05-07 09:57 4.26561 -32.10052 34967 ft 483 kts 38°
2026-05-07 09:57 4.31915 -32.05989 34971 ft 483 kts 38°
2026-05-07 09:58 4.37273 -32.01923 34968 ft 482 kts 38°
2026-05-07 09:58 4.42629 -31.97858 34967 ft 482 kts 38°
2026-05-07 09:59 4.47941 -31.93825 34969 ft 482 kts 38°
2026-05-07 09:59 4.53283 -31.89769 34973 ft 482 kts 38°
2026-05-07 10:00 4.58628 -31.85710 34967 ft 482 kts 37°
2026-05-07 10:00 4.63969 -31.81654 34968 ft 481 kts 37°
2026-05-07 10:01 4.69308 -31.77597 34969 ft 481 kts 37°
2026-05-07 10:01 4.74649 -31.73538 34966 ft 481 kts 37°
2026-05-07 10:02 4.79993 -31.69476 34971 ft 481 kts 37°
2026-05-07 10:02 4.85298 -31.65444 34970 ft 482 kts 37°
2026-05-07 10:03 4.90648 -31.61376 34964 ft 482 kts 37°
2026-05-07 10:03 4.95992 -31.57312 34971 ft 482 kts 37°
2026-05-07 10:04 5.01343 -31.53241 34975 ft 482 kts 37°
2026-05-07 10:04 5.06683 -31.49179 34966 ft 482 kts 37°
2026-05-07 10:05 5.12026 -31.45112 34966 ft 482 kts 37°
2026-05-07 10:05 5.17376 -31.41041 34969 ft 482 kts 37°
2026-05-07 10:06 5.22679 -31.37003 34964 ft 481 kts 37°
2026-05-07 10:06 5.28014 -31.32941 34965 ft 481 kts 37°
2026-05-07 10:07 5.33362 -31.28867 34970 ft 482 kts 37°
2026-05-07 10:07 5.38702 -31.24800 34969 ft 482 kts 37°
2026-05-07 10:08 5.44016 -31.20752 34965 ft 482 kts 37°
2026-05-07 10:08 5.49389 -31.16728 34966 ft 482 kts 37°
2026-05-07 10:09 5.54759 -31.12704 34967 ft 482 kts 37°
2026-05-07 10:09 5.60138 -31.08671 34968 ft 482 kts 37°
2026-05-07 10:10 5.65512 -31.04640 34969 ft 482 kts 37°
2026-05-07 10:10 5.70889 -31.00607 34968 ft 482 kts 37°
2026-05-07 10:11 5.76240 -30.96592 34967 ft 482 kts 37°
2026-05-07 10:11 5.81620 -30.92554 34969 ft 483 kts 37°
2026-05-07 10:12 5.86999 -30.88516 34967 ft 482 kts 37°
2026-05-07 10:12 5.92380 -30.84476 34967 ft 482 kts 37°
2026-05-07 10:13 5.97763 -30.80433 34970 ft 482 kts 37°
2026-05-07 10:13 6.03138 -30.76395 34972 ft 483 kts 37°
2026-05-07 10:14 6.08520 -30.72351 34965 ft 482 kts 37°
2026-05-07 10:14 6.13898 -30.68309 34970 ft 483 kts 37°
2026-05-07 10:15 6.19244 -30.64289 34966 ft 483 kts 37°
2026-05-07 10:15 6.24633 -30.60237 34970 ft 483 kts 37°
2026-05-07 10:16 6.30011 -30.56191 34964 ft 483 kts 37°
2026-05-07 10:16 6.35395 -30.52140 34966 ft 483 kts 37°
2026-05-07 10:17 6.40779 -30.48088 34964 ft 483 kts 37°
2026-05-07 10:17 6.46159 -30.44038 34971 ft 483 kts 37°
2026-05-07 10:18 6.51549 -30.39979 34966 ft 483 kts 37°
2026-05-07 10:18 6.56899 -30.35950 34970 ft 484 kts 37°
2026-05-07 10:19 6.62292 -30.31886 34970 ft 484 kts 37°
2026-05-07 10:19 6.67680 -30.27826 34969 ft 484 kts 37°
2026-05-07 10:20 6.73070 -30.23762 34971 ft 484 kts 37°
2026-05-07 10:20 6.78458 -30.19699 34968 ft 484 kts 37°
2026-05-07 10:21 6.83853 -30.15630 34969 ft 485 kts 37°
2026-05-07 10:21 6.89245 -30.11562 34969 ft 485 kts 37°
2026-05-07 10:22 6.94654 -30.07479 34972 ft 485 kts 37°
2026-05-07 10:22 7.00057 -30.03400 34970 ft 485 kts 37°
2026-05-07 10:23 7.05429 -29.99344 34973 ft 486 kts 37°
2026-05-07 10:23 7.10785 -29.95298 34971 ft 485 kts 37°
2026-05-07 10:24 7.16192 -29.91211 34973 ft 486 kts 37°
2026-05-07 10:24 7.21582 -29.87087 34966 ft 486 kts 38°
2026-05-07 10:25 7.26934 -29.82935 34969 ft 486 kts 37°
2026-05-07 10:25 7.32303 -29.78774 34967 ft 486 kts 37°
2026-05-07 10:26 7.37641 -29.74636 34972 ft 487 kts 37°
2026-05-07 10:26 7.43004 -29.70477 34968 ft 487 kts 37°
2026-05-07 10:27 7.48376 -29.66310 34973 ft 487 kts 37°
2026-05-07 10:27 7.53751 -29.62140 34973 ft 487 kts 37°
2026-05-07 10:28 7.59103 -29.57986 34976 ft 487 kts 37°
2026-05-07 10:28 7.64475 -29.53815 34975 ft 487 kts 37°
2026-05-07 10:29 7.69862 -29.49630 34974 ft 488 kts 37°
2026-05-07 10:29 7.75246 -29.45447 34976 ft 488 kts 37°
2026-05-07 10:30 7.83289 -29.39196 34969 ft 488 kts 37°
2026-05-07 10:30 7.88679 -29.35005 34975 ft 489 kts 37°
2026-05-07 10:31 7.94060 -29.30819 34972 ft 489 kts 37°
2026-05-07 10:31 7.99460 -29.26617 34975 ft 489 kts 37°
2026-05-07 10:32 8.04858 -29.22415 34977 ft 490 kts 37°
2026-05-07 10:32 8.10256 -29.18213 34973 ft 490 kts 37°
2026-05-07 10:33 8.15617 -29.14037 34979 ft 490 kts 37°
2026-05-07 10:33 8.21018 -29.09828 34976 ft 490 kts 37°
2026-05-07 10:34 8.26416 -29.05621 34979 ft 490 kts 37°
2026-05-07 10:34 8.31815 -29.01411 34979 ft 491 kts 37°
2026-05-07 10:35 8.37225 -28.97191 34983 ft 491 kts 37°
2026-05-07 10:35 8.41726 -28.93679 34983 ft 491 kts 37°
2026-05-07 10:36 8.48022 -28.88764 34981 ft 491 kts 37°
2026-05-07 10:36 8.52521 -28.85252 34978 ft 491 kts 37°
2026-05-07 10:37 8.57937 -28.81021 34985 ft 491 kts 37°
2026-05-07 10:37 8.64222 -28.76110 34982 ft 491 kts 37°
2026-05-07 10:38 8.68759 -28.72564 34983 ft 492 kts 37°
2026-05-07 10:38 8.74139 -28.68356 34984 ft 492 kts 37°
2026-05-07 10:39 8.79554 -28.64120 34984 ft 492 kts 36°
2026-05-07 10:39 8.84969 -28.59883 34983 ft 492 kts 36°
2026-05-07 10:40 8.90373 -28.55653 34985 ft 492 kts 36°
2026-05-07 10:40 8.95805 -28.51433 34981 ft 492 kts 36°
2026-05-07 10:41 9.01250 -28.47219 34985 ft 492 kts 36°
2026-05-07 10:41 9.06687 -28.43009 34986 ft 492 kts 36°
2026-05-07 10:42 9.12130 -28.38792 34986 ft 493 kts 36°
2026-05-07 10:42 9.17577 -28.34571 34986 ft 493 kts 36°
2026-05-07 10:43 9.22990 -28.30374 34983 ft 493 kts 36°
2026-05-07 10:43 9.28440 -28.26146 34986 ft 493 kts 36°
2026-05-07 10:44 9.33901 -28.21909 34987 ft 493 kts 36°
2026-05-07 10:44 9.39353 -28.17677 34987 ft 494 kts 35°
2026-05-07 10:45 9.44803 -28.13444 34984 ft 494 kts 35°
2026-05-07 10:45 9.50261 -28.09205 34987 ft 494 kts 35°
2026-05-07 10:46 9.55716 -28.04964 34998 ft 493 kts 35°
2026-05-07 10:46 9.61117 -28.00765 34989 ft 492 kts 35°
2026-05-07 10:47 9.66558 -27.96532 34989 ft 493 kts 35°
2026-05-07 10:47 9.72003 -27.92295 34989 ft 493 kts 35°
2026-05-07 10:48 9.77445 -27.88058 34992 ft 493 kts 35°
2026-05-07 10:48 9.82894 -27.83815 34992 ft 493 kts 35°
2026-05-07 10:49 9.88302 -27.79601 34994 ft 494 kts 35°
2026-05-07 10:49 9.93748 -27.75355 34996 ft 494 kts 35°
2026-05-07 10:50 9.99210 -27.71096 34992 ft 494 kts 35°
2026-05-07 10:50 10.04663 -27.66841 34992 ft 494 kts 35°
2026-05-07 10:51 10.10123 -27.62580 34993 ft 495 kts 35°
2026-05-07 10:51 10.15581 -27.58318 34994 ft 495 kts 35°
2026-05-07 10:52 10.21009 -27.54077 34994 ft 495 kts 35°
2026-05-07 10:52 10.26471 -27.49808 34992 ft 496 kts 35°
2026-05-07 10:53 10.31939 -27.45533 34998 ft 496 kts 35°
2026-05-07 10:53 10.37415 -27.41249 34996 ft 496 kts 35°
2026-05-07 10:54 10.42897 -27.36959 34996 ft 496 kts 35°
2026-05-07 10:54 10.48338 -27.32699 34996 ft 497 kts 35°
2026-05-07 10:55 10.53813 -27.28410 34998 ft 497 kts 35°
2026-05-07 10:55 10.59294 -27.24115 34995 ft 497 kts 35°
2026-05-07 10:56 10.64781 -27.19814 34999 ft 498 kts 35°
2026-05-07 10:56 10.70290 -27.15511 35001 ft 498 kts 34°
2026-05-07 10:57 10.75793 -27.11214 35001 ft 499 kts 34°
2026-05-07 10:57 10.81270 -27.06936 35003 ft 499 kts 34°
2026-05-07 10:58 10.86782 -27.02628 35004 ft 499 kts 34°
2026-05-07 10:58 10.92304 -26.98310 35009 ft 499 kts 34°
2026-05-07 10:59 10.97812 -26.94001 35002 ft 500 kts 34°
2026-05-07 10:59 11.03330 -26.89682 34995 ft 500 kts 34°
2026-05-07 11:00 11.08808 -26.85393 34996 ft 500 kts 34°
2026-05-07 11:00 11.14334 -26.81064 35002 ft 500 kts 34°
2026-05-07 11:01 11.19863 -26.76730 35004 ft 501 kts 34°
2026-05-07 11:01 11.25388 -26.72397 35006 ft 501 kts 34°
2026-05-07 11:02 11.30923 -26.68054 35003 ft 501 kts 34°
2026-05-07 11:02 11.36418 -26.63740 35007 ft 502 kts 34°
2026-05-07 11:03 11.41958 -26.59390 35011 ft 503 kts 34°
2026-05-07 11:03 11.47497 -26.55037 35008 ft 503 kts 34°
2026-05-07 11:04 11.53045 -26.50675 35009 ft 503 kts 34°
2026-05-07 11:04 11.58587 -26.46316 35010 ft 503 kts 34°
2026-05-07 11:05 11.64138 -26.41948 35008 ft 504 kts 34°
2026-05-07 11:05 11.69689 -26.37576 35007 ft 504 kts 34°
2026-05-07 11:06 11.75208 -26.33229 35008 ft 504 kts 34°
2026-05-07 11:06 11.80762 -26.28851 35007 ft 504 kts 34°
2026-05-07 11:07 11.86318 -26.24469 35010 ft 505 kts 34°
2026-05-07 11:07 11.91878 -26.20082 35009 ft 505 kts 34°
2026-05-07 11:08 11.97438 -26.15692 35009 ft 505 kts 34°
2026-05-07 11:08 12.03002 -26.11297 35006 ft 506 kts 34°
2026-05-07 11:09 12.08529 -26.06929 35010 ft 506 kts 34°
2026-05-07 11:09 12.14100 -26.02524 35009 ft 506 kts 34°
2026-05-07 11:10 12.19681 -25.98108 35008 ft 506 kts 34°
2026-05-07 11:10 12.25254 -25.93697 35008 ft 507 kts 34°
2026-05-07 11:11 12.30837 -25.89275 35009 ft 507 kts 34°
2026-05-07 11:11 12.36388 -25.84877 35008 ft 507 kts 34°
2026-05-07 11:12 12.41970 -25.80437 35007 ft 508 kts 34°
2026-05-07 11:12 12.47556 -25.75991 35006 ft 508 kts 34°
2026-05-07 11:13 12.53142 -25.71544 35008 ft 509 kts 34°
2026-05-07 11:13 12.58730 -25.67091 35011 ft 509 kts 34°
2026-05-07 11:14 12.64324 -25.62632 35006 ft 510 kts 34°
2026-05-07 11:14 12.69929 -25.58161 35006 ft 510 kts 34°
2026-05-07 11:15 12.75497 -25.53717 35006 ft 511 kts 34°
2026-05-07 11:15 12.81103 -25.49240 35005 ft 511 kts 34°
2026-05-07 11:16 12.86725 -25.44748 35004 ft 512 kts 34°
2026-05-07 11:16 12.92338 -25.40260 35009 ft 512 kts 34°
2026-05-07 11:17 12.97958 -25.35765 35007 ft 512 kts 34°
2026-05-07 11:17 13.03573 -25.31270 35009 ft 512 kts 34°
2026-05-07 11:18 13.09196 -25.26767 35008 ft 513 kts 34°
2026-05-07 11:18 13.14816 -25.22264 35011 ft 513 kts 33°
2026-05-07 11:19 13.20440 -25.17754 35010 ft 513 kts 33°
2026-05-07 11:19 13.26070 -25.13236 35008 ft 514 kts 33°
2026-05-07 11:20 13.30754 -25.09476 35012 ft 514 kts 33°
2026-05-07 11:20 13.36380 -25.04957 35013 ft 514 kts 33°
2026-05-07 11:21 13.42939 -24.99686 35018 ft 514 kts 33°
2026-05-07 11:21 13.47630 -24.95913 35011 ft 515 kts 33°
2026-05-07 11:22 13.53270 -24.91374 35016 ft 515 kts 33°
2026-05-07 11:22 13.58908 -24.86834 35011 ft 515 kts 33°
2026-05-07 11:23 13.64553 -24.82286 35014 ft 515 kts 33°
2026-05-07 11:23 13.65253 -24.81722 35012 ft 515 kts 33°
2026-05-07 11:40 13.67090 -24.80241 35009 ft 515 kts 33°
2026-05-07 11:41 13.72749 -24.75678 35013 ft 516 kts 33°
2026-05-07 11:41 13.78352 -24.71157 35012 ft 517 kts 33°
2026-05-07 11:42 13.83975 -24.66616 35012 ft 517 kts 33°
2026-05-07 11:42 13.89646 -24.62035 35013 ft 518 kts 33°
2026-05-07 11:43 13.95319 -24.57449 35007 ft 519 kts 33°
2026-05-07 11:43 14.01003 -24.52851 35007 ft 519 kts 33°
2026-05-07 11:44 14.06782 -24.48396 35021 ft 518 kts 31°
2026-05-07 11:44 14.12609 -24.44015 35010 ft 518 kts 31°
2026-05-07 11:45 14.18432 -24.39620 35013 ft 519 kts 31°
2026-05-07 11:45 14.24265 -24.35214 35012 ft 519 kts 31°
2026-05-07 11:46 14.30058 -24.30836 35010 ft 520 kts 31°
2026-05-07 11:46 14.35893 -24.26423 35015 ft 520 kts 31°
2026-05-07 11:47 14.41735 -24.22002 35013 ft 520 kts 31°
2026-05-07 11:47 14.47576 -24.17579 35010 ft 520 kts 31°
2026-05-07 11:48 14.53382 -24.13179 35015 ft 520 kts 31°
2026-05-07 11:48 14.59219 -24.08753 34959 ft 522 kts 31°
2026-05-07 11:48 14.62140 -24.06536 34716 ft 520 kts 31°
2026-05-07 11:49 14.65061 -24.04320 34461 ft 520 kts 31°
2026-05-07 11:49 14.67976 -24.02106 34210 ft 521 kts 31°
2026-05-07 11:49 14.70903 -23.99884 33948 ft 522 kts 31°
2026-05-07 11:49 14.73831 -23.97659 33667 ft 522 kts 31°
2026-05-07 11:50 14.76756 -23.95436 33384 ft 521 kts 31°
2026-05-07 11:50 14.79673 -23.93218 33108 ft 520 kts 31°
2026-05-07 11:50 14.82585 -23.91003 32838 ft 518 kts 31°
2026-05-07 11:50 14.85478 -23.88802 32559 ft 515 kts 31°
2026-05-07 11:51 14.88322 -23.86638 32301 ft 511 kts 32°
2026-05-07 11:51 14.91176 -23.84465 32038 ft 508 kts 32°
2026-05-07 11:51 14.94006 -23.82310 31720 ft 501 kts 32°
2026-05-07 11:51 14.96808 -23.80175 31044 ft 500 kts 32°
2026-05-07 11:52 14.99615 -23.78036 30271 ft 502 kts 33°
2026-05-07 11:52 15.02430 -23.75890 29569 ft 500 kts 33°
2026-05-07 11:52 15.05217 -23.73765 28995 ft 494 kts 33°
2026-05-07 11:52 15.07977 -23.71660 28438 ft 489 kts 33°
2026-05-07 11:53 15.10700 -23.69583 27867 ft 484 kts 34°
2026-05-07 11:53 15.13399 -23.67522 27285 ft 480 kts 34°
2026-05-07 11:53 15.16072 -23.65481 26740 ft 475 kts 34°
2026-05-07 11:53 15.18722 -23.63458 26179 ft 472 kts 34°
2026-05-07 11:54 15.21323 -23.61471 25624 ft 468 kts 34°
2026-05-07 11:54 15.23934 -23.59475 25078 ft 464 kts 35°
2026-05-07 11:54 15.26520 -23.57498 24534 ft 461 kts 35°
2026-05-07 11:54 15.29091 -23.55532 24007 ft 456 kts 35°
2026-05-07 11:55 15.31604 -23.53610 23462 ft 442 kts 35°
2026-05-07 11:55 15.34038 -23.51747 22900 ft 428 kts 35°
2026-05-07 11:55 15.36393 -23.49945 22384 ft 414 kts 35°
2026-05-07 11:55 15.38685 -23.48190 21934 ft 404 kts 35°
2026-05-07 11:56 15.40936 -23.46466 21476 ft 401 kts 35°
2026-05-07 11:56 15.43177 -23.44749 21007 ft 399 kts 36°
2026-05-07 11:56 15.45413 -23.43036 20519 ft 399 kts 36°
2026-05-07 11:56 15.47638 -23.41331 20107 ft 396 kts 36°
2026-05-07 11:57 15.49819 -23.39659 19690 ft 394 kts 36°
2026-05-07 11:57 15.52017 -23.37974 19272 ft 392 kts 36°
2026-05-07 11:57 15.54209 -23.36292 18852 ft 390 kts 36°
2026-05-07 11:57 15.56392 -23.34618 18431 ft 389 kts 36°
2026-05-07 11:58 15.58565 -23.32959 17959 ft 387 kts 34°
2026-05-07 11:58 15.60965 -23.31701 17462 ft 386 kts 22°
2026-05-07 11:58 15.63423 -23.30617 17083 ft 382 kts 23°
2026-05-07 11:58 15.65856 -23.29538 16687 ft 379 kts 22°
2026-05-07 11:59 15.68279 -23.28469 16292 ft 377 kts 22°
2026-05-07 11:59 15.70652 -23.27423 15891 ft 375 kts 22°
2026-05-07 11:59 15.73049 -23.26367 15490 ft 373 kts 22°
2026-05-07 11:59 15.75442 -23.25312 15091 ft 372 kts 22°
2026-05-07 12:00 15.77825 -23.24263 14688 ft 371 kts 22°
2026-05-07 12:00 15.80200 -23.23216 14279 ft 371 kts 22°
2026-05-07 12:00 15.82573 -23.22169 13887 ft 370 kts 22°
2026-05-07 12:00 15.84945 -23.21123 13446 ft 369 kts 22°
2026-05-07 12:01 15.87310 -23.20080 13009 ft 368 kts 22°
2026-05-07 12:01 15.89662 -23.19042 12613 ft 366 kts 22°
2026-05-07 12:01 15.92002 -23.18009 12212 ft 364 kts 22°
2026-05-07 12:01 15.94327 -23.16983 11811 ft 362 kts 22°
2026-05-07 12:02 15.96614 -23.15973 11429 ft 360 kts 22°
2026-05-07 12:02 15.98916 -23.14956 11042 ft 359 kts 22°
2026-05-07 12:02 16.01192 -23.13950 10825 ft 351 kts 22°
2026-05-07 12:02 16.03413 -23.12969 10669 ft 342 kts 22°
2026-05-07 12:03 16.05579 -23.12011 10510 ft 333 kts 22°
2026-05-07 12:03 16.07673 -23.11085 10362 ft 320 kts 21°
2026-05-07 12:03 16.09673 -23.10201 10225 ft 305 kts 21°
2026-05-07 12:03 16.11597 -23.09350 10006 ft 296 kts 21°
2026-05-07 12:04 16.13478 -23.08518 9677 ft 291 kts 21°
2026-05-07 12:04 16.15322 -23.07702 9363 ft 285 kts 21°
2026-05-07 12:04 16.17139 -23.06897 9024 ft 282 kts 21°
2026-05-07 12:04 16.18935 -23.06101 8705 ft 278 kts 21°
2026-05-07 12:05 16.20705 -23.05318 8400 ft 275 kts 21°
2026-05-07 12:05 16.22449 -23.04546 8115 ft 271 kts 21°
2026-05-07 12:05 16.24162 -23.03787 7850 ft 265 kts 20°
2026-05-07 12:05 16.25824 -23.03051 7572 ft 259 kts 21°
2026-05-07 12:06 16.27464 -23.02324 7277 ft 253 kts 20°
2026-05-07 12:06 16.28529 -23.01853 7097 ft 249 kts 20°
2026-05-07 12:06 16.30120 -23.01148 6827 ft 247 kts 20°
2026-05-07 12:06 16.31694 -23.00450 6566 ft 245 kts 20°
2026-05-07 12:07 16.32747 -22.99984 6387 ft 243 kts 20°
2026-05-07 12:07 16.33585 -22.99611 6241 ft 243 kts 20°
2026-05-07 12:08 16.35135 -22.98924 5945 ft 241 kts 20°
2026-05-07 12:08 16.36669 -22.98244 5699 ft 239 kts 20°
2026-05-07 12:08 16.38196 -22.97566 5440 ft 238 kts 20°
2026-05-07 12:08 16.39714 -22.96892 5192 ft 237 kts 20°
2026-05-07 12:09 16.41226 -22.96222 4936 ft 235 kts 20°
2026-05-07 12:09 16.42722 -22.95558 4789 ft 234 kts 20°
2026-05-07 12:09 16.44228 -22.94920 4673 ft 232 kts 14°
2026-05-07 12:09 16.45782 -22.94672 4517 ft 222 kts 359°
2026-05-07 12:10 16.47302 -22.94681 4406 ft 217 kts 356°
2026-05-07 12:10 16.48798 -22.94709 4270 ft 211 kts 356°
2026-05-07 12:10 16.50243 -22.94728 4140 ft 205 kts 357°
2026-05-07 12:10 16.51659 -22.94741 4012 ft 200 kts 356°
2026-05-07 12:11 16.53028 -22.94751 3792 ft 194 kts 357°
2026-05-07 12:11 16.54346 -22.94762 3577 ft 190 kts 358°
2026-05-07 12:11 16.55662 -22.94771 3367 ft 186 kts 358°
2026-05-07 12:11 16.56931 -22.94779 3132 ft 180 kts 358°
2026-05-07 12:12 16.58175 -22.94788 2906 ft 177 kts 359°
2026-05-07 12:12 16.59402 -22.94798 2691 ft 175 kts
2026-05-07 12:12 16.60593 -22.94806 2482 ft 167 kts
2026-05-07 12:12 16.61745 -22.94813 2261 ft 164 kts
2026-05-07 12:13 16.62857 -22.94821 2052 ft 151 kts
2026-05-07 12:13 16.63689 -22.94825 1927 ft 142 kts 360°
2026-05-07 12:13 16.64667 -22.94837 1700 ft 139 kts 359°
2026-05-07 12:13 16.65630 -22.94858 1480 ft 137 kts
2026-05-07 12:14 16.66565 -22.94867 1282 ft 132 kts
2026-05-07 12:14 16.67505 -22.94855 1126 ft 136 kts
2026-05-07 12:14 16.68457 -22.94848 940 ft 139 kts
2026-05-07 12:14 16.69420 -22.94871 834 ft 136 kts
2026-05-07 12:15 16.70374 -22.94870 659 ft 138 kts
2026-05-07 12:15 16.71323 -22.94878 463 ft 136 kts
2026-05-07 12:15 16.72268 -22.94887 259 ft 136 kts
2026-05-07 12:15 16.73091 -22.94886 194 ft 116 kts
2026-05-07 12:16 16.73728 -22.94893 189 ft 71 kts
2026-05-07 12:16 16.74078 -22.94897 188 ft 39 kts 360°
2026-05-07 12:16 16.74234 -22.94853 186 ft 18 kts 56°
2026-05-07 12:16 16.74293 -22.94752 191 ft 14 kts 64°
2026-05-07 12:17 16.74259 -22.94681 184 ft 9 kts 158°
2026-05-07 12:17 16.74215 -22.94685 187 ft 7 kts 193°
2026-05-07 12:17 16.74142 -22.94698 187 ft 15 kts 181°
2026-05-07 12:17 16.74010 -22.94698 190 ft 20 kts 179°
2026-05-07 12:18 16.73892 -22.94697 202 ft 14 kts 180°
2026-05-07 12:18 16.73786 -22.94696 211 ft 16 kts 179°
2026-05-07 12:18 16.73668 -22.94694 211 ft 18 kts 179°
2026-05-07 12:18 16.73617 -22.94660 206 ft 5 kts 106°
2026-05-07 12:19 16.73602 -22.94618 205 ft 7 kts 124°
2026-05-07 12:19 16.73554 -22.94597 208 ft 9 kts 175°
2026-05-07 12:19 16.73504 -22.94593 203 ft 7 kts 153°
2026-05-07 12:19 16.73495 -22.94549 203 ft 7 kts 91°
2026-05-07 12:20 16.73495 -22.94504 203 ft 4 kts 89°